Regional Weather Roundup
Issued by NWS

Home | Current Version | Previous Version | Text Only | Print | Product List | Glossary On
Versions: 1 2 3 4 5 6 7 8 9 10 11 12 13 14 15 16 17 18 19 20 21 22 23 24 25 26 27 28 29 30 31 32 33 34 35 36 37 38 39 40 41 42 43 44 45 46 47 48 49 50
000
ASUS43 KMPX 021510
RWRMN
WEATHER ROUNDUP FOR MINNESOTA
NATIONAL WEATHER SERVICE TWIN CITIES/CHANHASSEN MN
1000 AM CDT THU JUL 02 2015


NOTE: "FAIR" INDICATES FEW OR NO CLOUDS BELOW 12,000 FEET WITH NO
SIGNIFICANT WEATHER AND/OR OBSTRUCTIONS TO VISIBILITY. N/A MEANS
CURRENT SKY AND/OR WEATHER CONDITIONS ARE NOT AVAILABLE.

MNZ060>063-068>070-021600-
   Twin Cities Metro

CITY           SKY/WX    TMP DP  RH WIND       PRES   REMARKS
TWIN CITIES    MOSUNNY   69  54  58 W3        30.04S
ST PAUL        SUNNY     69  56  62 E5        30.04F
CRYSTAL        SUNNY     71  53  52 CALM      30.03S
BLAINE         SUNNY     70  55  60 CALM      30.04S
LAKEVILLE      SUNNY     66  54  63 CALM      30.04S
EDEN PRAIRIE   SUNNY     68  53  58 CALM      30.03F
SOUTH ST PAUL  SUNNY     68  53  59 CALM      30.04S
LAKE ELMO      FAIR      68  55  64 CALM      30.05S
$$
MNZ001>005-007-008-013>017-022>024-027-028-021600-
   Northwest Minnesota

CITY           SKY/WX    TMP DP  RH WIND       PRES   REMARKS
BEMIDJI        MOSUNNY   68  56  64 S10       30.01F
HALLOCK        SUNNY     66  61  82 S12       29.94S
ROSEAU         SUNNY     68  61  77 S8        29.97S
WARROAD        SUNNY     66  61  82 SW8       29.97S
THIEF RVR FALL SUNNY     66  54  63 S13       29.99S
CROOKSTON      SUNNY     66  57  72 SW13      29.99S
FOSSTON        SUNNY     64  54  68 S12       30.01F
DETROIT LAKES  SUNNY     68  54  60 S12       30.03F
MOORHEAD       SUNNY     66  54  63 S10       30.01S
PARK RAPIDS    SUNNY     69  54  58 SW8       30.03F
$$
MNZ006-009>011-018-025>026-021600-
   North Central Minnesota

CITY           SKY/WX    TMP DP  RH WIND       PRES   REMARKS
BAUDETTE       SUNNY     69  56  62 SW7       29.97S
FLAG ISLAND    MOSUNNY   68  59  73 SW9       29.94S
INTL FALLS     SUNNY     69  58  67 W7        29.98F
WASKISH        MOSUNNY   70  61  73 SW9       30.00S
BIG FORK       SUNNY     70  57  64 W3        30.02R
LONGVILLE      MOSUNNY   68  55  64 SW6       30.03S
GRAND RAPIDS   MOSUNNY   70  55  60 SW9       30.03S
CRANE LAKE     SUNNY     66  57  72 NW3       30.01S
ORR            SUNNY     66  57  72 CALM      29.98S
COOK           SUNNY     68  61  77 W6        30.01F
WALKER         PTSUNNY   65  55  68 SW6       30.03
$$
MNZ012-019>021-037-021600-
   Northeast Minnesota

CITY           SKY/WX    TMP DP  RH WIND       PRES   REMARKS
DULUTH         MOSUNNY   71  57  61 W10       30.03S
ELY            MOSUNNY   64  57  77 W6        30.01S
HIBBING        SUNNY     69  60  73 W5        30.02S
DULUTH HARBOR  SUNNY     70  61  73 SW9       30.02F
TWO HARBORS    SUNNY     72  63  73 S3        29.99F
SILVER BAY     SUNNY     70  59  68 CALM      29.99F
GRAND MARAIS     N/A     53  48  83 SW8       30.01S
G MARAIS ARPRT SUNNY     64  54  68 CALM      30.02F
$$
MNZ029>031-032-039>041-046>048-054>057-064-021600-
   West Central Minnesota

CITY           SKY/WX    TMP DP  RH WIND       PRES   REMARKS
FERGUS FALLS   SUNNY     66  55  68 S9        30.02F
WHEATON        MOSUNNY   64  54  68 SE8       30.03R
MORRIS         SUNNY     68  50  52 S9        30.02S
ALEXANDRIA     SUNNY     66  54  65 S7        30.05S
ELBOW LAKE     FAIR      66  53  63 S14       30.03R
WADENA           N/A     66  55  68 SW7       30.04R
GLENWOOD       SUNNY     66  54  63 S7        30.05S
APPLETON       SUNNY     66  50  55 SE7       30.02S
BENSON         SUNNY     66  48  52 S7        30.03S
ORTONVILLE     MOSUNNY   64  48  55 SE6       30.02R
MADISON        SUNNY     64  50  59 SE8       30.02R
WILLMAR        FAIR      66  54  63 SE6       30.05S
$$
MNZ033>034-036-042>043-049>051-058-059-021600-
   Central Minnesota

CITY           SKY/WX    TMP DP  RH WIND       PRES   REMARKS
ST CLOUD       SUNNY     68  54  60 S5        30.04S
SAUK CENTRE    FAIR      65  55  68 S6        30.05S
PAYNESVILLE    MOSUNNY   64  53  67 SE6       30.05F
AITKIN         SUNNY     72  57  60 S7        30.03S
PINE RIVER       N/A     70  55  60 SW7       30.07S
BRAINERD       MOSUNNY   68  55  63 S3        30.04S
STAPLES        SUNNY     66  52  59 S7        30.04S
LONG PRAIRIE   FAIR      64  55  72 S6        30.05S
LITTLE FALLS   SUNNY     68  52  56 CALM      30.04F
LITCHFIELD     MOSUNNY   70  55  60 SE3       30.05S
BUFFALO        SUNNY     66  53  63 CALM      30.05F
MAPLE LAKE     MOSUNNY   68  57  68 CALM      30.05F
$$
MNZ037-044-045-052-053-021600-
   East Central Minnesota

CITY           SKY/WX    TMP DP  RH WIND       PRES   REMARKS
PRINCETON      SUNNY     70  55  60 CALM      30.04F
MORA           SUNNY     64  55  72 CALM      30.06S
CAMBRIDGE      SUNNY     72  55  56 CALM      30.02S
RUSH CITY      SUNNY     68  56  66 CALM      30.05S
MOOSE LAKE     SUNNY     68  63  83 CALM      30.03S
HINCKLEY       FAIR      68  59  73 S3        30.05S
CLOQUET        PTSUNNY   68  57  68 S5        30.04R
MCGREGOR       CLOUDY    70  55  60 SW5       30.04S
$$
MNZ071>073-080-081-089-090-097-098-021600-
   Southwest Minnesota

CITY           SKY/WX    TMP DP  RH WIND       PRES   REMARKS
MONTEVIDEO     SUNNY     68  54  60 S7        30.03S
GRANITE FALLS  MOSUNNY   64  51  62 CALM      30.04F
CANBY          MOSUNNY   62  56  80 SE7       30.03R
MARSHALL       PTSUNNY   63  52  67 SE9       30.01S
REDWOOD FALLS  MOSUNNY   66  54  65 SE6       30.02F
OLIVIA         MOSUNNY   64  52  63 SE7       30.03F
PIPESTONE      CLOUDY    61  54  77 S5        30.01S
WINDOM         CLOUDY    63  54  72 E9        30.02F
WORTHINGTON    CLOUDY    61  52  72 E9        30.01F
JACKSON        CLOUDY    63  54  72 SE9       30.03F
TRACY          PTSUNNY   64  54  71 SE9       30.02S
SLAYTON        CLOUDY    61  55  80 CALM      30.02S
$$
MNZ065>067-074>077-082>085-091>093-021600-
   South Central Minnesota

CITY           SKY/WX    TMP DP  RH WIND       PRES   REMARKS
MANKATO        MOSUNNY   64  54  68 S6        30.05S
NEW ULM        MOSUNNY   64  52  63 SE5       30.03F
ST JAMES       PTSUNNY   66  55  68 SE6       30.04F
FAIRMONT       PTSUNNY   63  50  63 SE7       30.03S
GLENCOE        MOSUNNY   68  57  67 SE3       30.04S
FARIBAULT      SUNNY     66  55  68 CALM      30.05S
OWATONNA       MOSUNNY   66  54  63 E3        30.05S
WASECA         MOSUNNY   63  54  72 E3        30.06S
ALBERT LEA     PTSUNNY   64  52  63 E5        30.05R
$$
MNZ078>079-086>088-094>096-021600-
   Southeast Minnesota

CITY           SKY/WX    TMP DP  RH WIND       PRES   REMARKS
ROCHESTER      MOSUNNY   67  52  58 SE3       30.06S
RED WING       SUNNY     66  57  72 CALM      30.03S
STANTON        SUNNY     66  55  68 CALM      30.03F
DODGE CENTER   MOSUNNY   66  52  59 CALM      30.06S
WINONA         SUNNY     59  59 100 CALM      30.05S
AUSTIN         PTSUNNY   64  54  68 E3        30.05R
PRESTON        MOSUNNY   61  53  73 CALM      30.07S
$$
ABBREVIATIONS USED IN REMARKS
   TC - TEMPERATURES IN CELSIUS
  WCI - WIND CHILL INDEX
   HX - HEAT INDEX
  VSB - VISIBILITY
$$



USA.gov is the U.S. government's official web portal to all federal, state and local government web resources and services.